Location: Biltmore Gardens
(41.6070°N, 83.4666°W)
Time: 14:21:12
(UTC+00:00)

Cosmos 1733 Rocket - Pass Details

Date: 14 July 2020
Orbit: 604 x 628 km, 82.5° (Epoch: 04 August)

Event Time Altitude Azimuth Distance (km) Brightness Sun altitude
Exits shadow 07:57:57 42° 185° (S) 869 3.4 -19.2°
Maximum altitude 07:59:23 88° 101° (ESE) 610 2.9 -19.0°
Drops below altitude 10° 08:03:43 10° 8° (N) 1,959 6.6 -18.6°
Sets 08:05:57 0° 9° (N) 2,868 7.6 -18.3°
